Powrót do katalogu

STARLINK-3598

AktywnyŁącznośćVLEO
NORAD 51897·PAYLOAD·🇺🇸 United States

Wystrzelony Mar 3, 2022 z Cape Canaveral Space Force Station

Loading…

Następne Przeloty (najbliższe 24 godziny)

TLE

ŚwieżeSource: CelesTrak SupGP

Epoka: Sep 14, 2026, 22:12 UTC

1 51897C 22022AX  26257.92548611  .00002223  00000+0  65669-4 0  2577
2 51897  53.1570 213.4740 0001405  96.6967  18.0682 15.34392499    12

Śledź STARLINK-3598 w czasie rzeczywistym z AllMySat

Download on the App Store